This is the latest recevied weather packets stored in our database for station/object W5LND-10. If no packets are shown the sender has not sent any weather packets the latest 10 day(s).
| Time | Temp. | Humidity | Pressure | Rain* | Wind** | Luminosity | Snow |
|---|---|---|---|---|---|---|---|
| 1777163797 | 32.22° C | 9% | 998.7 hPa | 0 mm | - | 76 W/m² | - |
| 1777163497 | 32.22° C | 9% | 998.8 hPa | 0 mm | - | 74 W/m² | - |
| 1777163197 | 32.22° C | 9% | 998.8 hPa | 0 mm | - | 77 W/m² | - |
| 1777162897 | 32.22° C | 9% | 998.8 hPa | 0 mm | - | 86 W/m² | - |
| 1777162597 | 32.22° C | 10% | 998.6 hPa | 0 mm | - | 84 W/m² | - |
| 1777162297 | 32.22° C | 10% | 998.7 hPa | 0 mm | - | 107 W/m² | - |
| 1777161998 | 32.22° C | 10% | 998.7 hPa | 0 mm | - | 116 W/m² | - |
| 1777161698 | 32.78° C | 10% | 998.6 hPa | 0 mm | - | 98 W/m² | - |
| 1777161398 | 32.78° C | 9% | 998.7 hPa | 0 mm | - | 81 W/m² | - |
| 1777161098 | 33.33° C | 9% | 998.5 hPa | 0 mm | - | 221 W/m² | - |
| 1777160797 | 33.89° C | 9% | 998.7 hPa | 0 mm | - | 202 W/m² | - |
| 1777160498 | 33.89° C | 9% | 998.6 hPa | 0 mm | - | 262 W/m² | - |
| 1777160197 | 33.89° C | 10% | 998.4 hPa | 0 mm | - | 302 W/m² | - |
| 1777159898 | 33.89° C | 9% | 998.5 hPa | 0 mm | - | 309 W/m² | - |
| 1777159598 | 33.89° C | 10% | 998.5 hPa | 0 mm | - | 271 W/m² | - |
| 1777159298 | 33.89° C | 9% | 998.5 hPa | 0 mm | - | 360 W/m² | - |
| 1777158998 | 33.89° C | 10% | 998.7 hPa | 0 mm | - | 279 W/m² | - |
| 1777158698 | 33.89° C | 10% | 998.6 hPa | 0 mm | - | 318 W/m² | - |
| 1777158398 | 33.89° C | 9% | 998.6 hPa | 0 mm | - | 390 W/m² | - |
| 1777158098 | 33.89° C | 9% | 998.6 hPa | 0 mm | - | 350 W/m² | - |
| 1777157798 | 33.89° C | 10% | 998.4 hPa | 0 mm | - | 332 W/m² | - |
| 1777157498 | 33.89° C | 10% | 998.4 hPa | 0 mm | - | 362 W/m² | - |
| 1777157198 | 33.89° C | 9% | 998.5 hPa | 0 mm | - | 522 W/m² | - |
| 1777156898 | 33.89° C | 10% | 998.5 hPa | 0 mm | - | 462 W/m² | - |
| 1777156598 | 33.89° C | 10% | 998.4 hPa | 0 mm | - | 394 W/m² | - |
* Rain latest hour (hover to see other rain measurements)
** Current wind speed in m/s (hover to see current wind gust speed)